FW3101 Weather Reports


Display with metric or nautical units.
time (UTC)temp
F
wind
direction
speed
MPH
gust
MPH
rain 1hr
in
rain 24hr
in
rain mn
in
humidity
%
barometer
mb
20260507002111 71 194 3.0 10.0 0.00 0.00 0.00 55 1015.3
20260507001100 71 156 4.0 10.0 0.00 0.00 0.00 54 1015.2
20260506234922 72 153 4.0 8.0 0.00 0.00 0.00 51 1015.2
20260506233851 73 227 4.0 10.0 0.00 0.00 0.00 51 1015.2
20260506232839 73 169 4.0 9.0 0.00 0.00 0.00 52 1015.2
20260506231838 73 176 4.0 9.0 0.00 0.00 0.00 51 1015.3
20260506224611 73 217 4.0 8.0 0.00 0.00 0.00 50 1015.5
20260506222457 74 240 4.0 10.0 0.00 0.00 0.00 49 1015.8
20260506221449 74 169 3.0 11.0 0.00 0.00 0.00 49 1015.9
20260506220511 74 147 4.0 11.0 0.00 0.00 0.00 50 1016.0
20260506215529 75 108 3.0 8.0 0.00 0.00 0.00 50 1016.1
20260506214540 74 77 3.0 7.0 0.00 0.00 0.00 50 1016.2
20260506213529 75 128 3.0 9.0 0.00 0.00 0.00 50 1016.3
20260506212459 74 190 3.0 9.0 0.00 0.00 0.00 52 1016.5
20260506211431 74 187 2.0 6.0 0.00 0.00 0.00 51 1016.6
20260506210450 74 108 2.0 8.0 0.00 0.00 0.00 53 1016.7
20260506205513 73 167 3.0 10.0 0.00 0.00 0.00 52 1016.7
20260506204512 73 85 4.0 10.0 0.00 0.00 0.00 52 1016.8
20260506203505 74 150 2.0 7.0 0.00 0.00 0.00 51 1016.8
20260506202429 74 155 1.0 3.0 0.00 0.00 0.00 51 1016.9
20260506201412 73 155 2.0 6.0 0.00 0.00 0.00 52 1017.1
20260506200344 72 195 2.0 8.0 0.00 0.00 0.00 54 1017.2
20260506195359 72 168 4.0 8.0 0.00 0.00 0.00 54 1017.4
20260506194408 72 148 2.0 8.0 0.00 0.00 0.00 54 1017.4
20260506193359 72 139 3.0 7.0 0.00 0.00 0.00 54 1017.6
20260506192347 71 174 3.0 8.0 0.00 0.00 0.00 56 1017.7
20260506191353 72 91 2.0 8.0 0.00 0.00 0.00 53 1017.8
20260506190417 71 151 1.0 6.0 0.00 0.00 0.00 54 1017.9
20260506185346 71 139 2.0 6.0 0.00 0.00 0.00 54 1018.0
20260506184401 71 96 1.0 1.0 0.00 0.00 0.00 55 1018.0
20260506183408 71 101 1.0 5.0 0.00 0.00 0.00 54 1018.1
20260506182358 70 352 0.0 0.0 0.00 0.00 0.00 55 1018.2
20260506181327 70 164 1.0 6.0 0.00 0.00 0.00 56 1018.3
20260506180254 69 143 0.0 3.0 0.00 0.00 0.00 57 1018.3
20260506175306 69 295 0.0 5.0 0.00 0.00 0.00 59 1018.4
20260506174310 69 112 0.0 0.0 0.00 0.00 0.00 57 1018.4
20260506172220 68 167 0.0 3.0 0.00 0.00 0.00 57 1018.5
20260506171201 66 217 0.0 4.0 0.00 0.00 0.00 60 1018.5
20260506170156 66 115 0.0 5.0 0.00 0.00 0.00 63 1018.5
20260506165142 65 96 0.0 0.0 0.00 0.00 0.00 64 1018.5
20260506164140 65 73 0.0 5.0 0.00 0.00 0.00 64 1018.4
20260506163105 65 239 0.0 0.0 0.00 0.00 0.00 64 1018.6
20260506162049 64 197 0.0 3.0 0.00 0.00 0.00 66 1018.6
20260506161045 63 93 0.0 3.0 0.00 0.00 0.00 66 1018.7
20260506160015 62 193 0.0 0.0 0.00 0.00 0.00 70 1018.7
20260506154948 62 136 0.0 1.0 0.00 0.00 0.00 70 1018.7
20260506153927 61 108 0.0 0.0 0.00 0.00 0.00 70 1018.8
20260506152940 61 161 0.0 0.0 0.00 0.00 0.00 70 1018.8
20260506151943 61 91 0.0 0.0 0.00 0.00 0.00 71 1018.9
20260506150959 61 108 0.0 1.0 0.00 0.00 0.00 69 1018.8
20260506144824 60 169 0.0 0.0 0.00 0.00 0.00 69 1018.9
20260506143817 59 284 0.0 0.0 0.00 0.00 0.00 70 1018.9
20260506141749 56 250 0.0 0.0 0.00 0.00 0.00 74 1018.9
20260506140716 57 250 0.0 0.0 0.00 0.00 0.00 83 1018.7
20260506135653 53 251 0.0 0.0 0.00 0.00 0.00 88 1018.6
20260506133548 49 250 0.0 0.0 0.00 0.00 0.00 91 1018.5
20260506132607 48 250 0.0 0.0 0.00 0.00 0.00 91 1018.5
20260506131539 47 251 0.0 0.0 0.00 0.00 0.00 91 1018.4
20260506130540 47 251 0.0 0.0 0.00 0.00 0.00 91 1018.3
20260506125542 48 250 0.0 0.0 0.00 0.00 0.00 90 1018.2
20260506124602 48 251 0.0 0.0 0.00 0.00 0.00 90 1018.1
20260506123609 49 250 0.0 0.0 0.00 0.00 0.00 91 1018.1
20260506122612 49 251 0.0 0.0 0.00 0.00 0.00 91 1017.9
20260506115341 49 251 0.0 0.0 0.00 0.00 0.00 91 1017.8
20260506114350 48 251 0.0 0.0 0.00 0.00 0.00 90 1017.7
20260506113347 49 251 0.0 0.0 0.00 0.00 0.00 90 1017.7
20260506112317 50 251 0.0 0.0 0.00 0.00 0.00 90 1017.7
20260506111333 50 250 0.0 0.0 0.00 0.00 0.00 90 1017.6
20260506110259 50 250 0.0 0.0 0.00 0.00 0.00 90 1017.5
20260506104139 50 251 0.0 0.0 0.00 0.00 0.00 88 1017.6
20260506103115 50 251 0.0 0.0 0.00 0.00 0.00 87 1017.7
20260506102123 50 250 0.0 0.0 0.00 0.00 0.00 88 1017.6
20260506100007 49 108 0.0 0.0 0.00 0.00 0.00 87 1017.5
20260506093914 50 108 0.0 0.0 0.00 0.00 0.00 87 1017.8
20260506092848 51 108 0.0 0.0 0.00 0.00 0.00 87 1017.7
20260506091852 51 108 0.0 0.0 0.00 0.00 0.00 88 1017.7
20260506090850 51 108 0.0 0.0 0.00 0.00 0.00 88 1017.7
20260506085830 51 108 0.0 0.0 0.00 0.00 0.00 88 1017.8
20260506084815 52 108 0.0 0.0 0.00 0.00 0.00 89 1017.9
20260506083800 52 108 0.0 0.0 0.00 0.00 0.00 90 1018.0
20260506082804 51 108 0.0 0.0 0.00 0.00 0.00 89 1018.0
20260506081804 52 108 0.0 0.0 0.00 0.00 0.00 88 1017.9
20260506080824 52 108 0.0 0.0 0.00 0.00 0.00 88 1018.0
20260506071631 53 108 0.0 0.0 0.00 0.00 0.00 86 1017.9
20260506070649 54 108 0.0 0.0 0.00 0.00 0.00 84 1017.8
20260506062515 55 108 0.0 0.0 0.00 0.00 0.00 82 1017.2
20260506061516 55 118 0.0 0.0 0.00 0.00 0.00 82 1017.3
20260506044933 57 98 0.0 0.0 0.00 0.00 0.00 78 1016.6
20260506043906 57 139 0.0 0.0 0.00 0.00 0.00 77 1016.4
20260506042853 57 154 0.0 0.0 0.00 0.00 0.00 77 1016.3
20260506041845 58 120 0.0 0.0 0.00 0.00 0.00 76 1016.0
20260506040910 58 129 0.0 0.0 0.00 0.00 0.00 76 1016.0
20260506035826 58 132 0.0 0.0 0.00 0.00 0.00 75 1015.9
20260506033604 59 120 0.0 0.0 0.00 0.00 0.00 74 1015.7
20260506030429 60 134 0.0 1.0 0.00 0.00 0.00 71 1015.1
20260506025447 60 97 0.0 3.0 0.00 0.00 0.00 70 1014.9
20260506024512 60 135 1.0 3.0 0.00 0.00 0.00 69 1014.7
20260506022343 60 117 1.0 4.0 0.00 0.00 0.00 68 1014.6
20260506020239 61 139 0.0 3.0 0.00 0.00 0.00 66 1014.2
20260506015205 61 136 2.0 5.0 0.00 0.00 0.00 65 1014.3
20260506014133 62 87 1.0 5.0 0.00 0.00 0.00 65 1014.3
20260506012025 62 95 1.0 6.0 0.00 0.00 0.00 63 1014.2
20260506011041 62 143 2.0 6.0 0.00 0.00 0.00 64 1014.2
20260506010059 62 134 1.0 4.0 0.00 0.00 0.00 63 1014.3
20260506005030 62 129 1.0 5.0 0.00 0.00 0.00 64 1014.2
20260506004039 62 164 1.0 5.0 0.00 0.00 0.00 63 1014.1